User: anonymous   Login
Location: Wangen/Allg�u
(47.6873°N, 9.8307°E)
Time: 01:09:17
(UTC+02:00)
Language:

ISS - Orbit

View from above orbital plane
View from above orbital plane
View from above satellite
View from above satellite

Ground track
Ground track

The orbit data is extracted from the following two-line orbital elements,

1 25544U 98067A   22274.89635759 -.00065216  00000-0 -11607-2 0  9998
2 25544  51.6407 167.9021 0003213 257.6590 179.5260 15.49594169361737
Epoch (UTC): 01 October 2022 21:30:45
Eccentricity: 0.0003213
inclination: 51.6407°
perigee height: 416 km
apogee height: 420 km
right ascension of ascending node: 167.9021°
argument of perigee: 257.6590°
revolutions per day: 15.49594169
mean anomaly at epoch: 179.5260°
orbit number at epoch: 36173

The dashed part of the orbit path shows where the satellite is in the earth's shadow,  

DLR